Regional Weather Roundup
Issued by NWS

Home | Current Version | Previous Version | Text Only | Print | Product List | Glossary On
Versions: 1 2 3 4 5 6 7 8 9 10 11 12 13 14 15 16 17 18 19 20 21 22 23 24 25 26 27 28 29 30 31 32 33 34 35 36 37 38 39 40 41 42 43 44 45 46 47 48 49 50
000
ASUS43 KMPX 300210
RWRMN
WEATHER ROUNDUP FOR MINNESOTA
NATIONAL WEATHER SERVICE TWIN CITIES/CHANHASSEN MN
900 PM CDT FRI MAY 29 2015


NOTE: "FAIR" INDICATES FEW OR NO CLOUDS BELOW 12,000 FEET WITH NO
SIGNIFICANT WEATHER AND/OR OBSTRUCTIONS TO VISIBILITY. N/A MEANS
CURRENT SKY AND/OR WEATHER CONDITIONS ARE NOT AVAILABLE.

MNZ060>063-068>070-300300-
   Twin Cities Metro

CITY           SKY/WX    TMP DP  RH WIND       PRES   REMARKS
TWIN CITIES    CLOUDY    56  53  90 N20G25    29.99R
ST PAUL        CLOUDY    57  54  89 N12       29.99R
CRYSTAL        LGT RAIN  55  51  86 N13       30.00R
BLAINE         LGT RAIN  55  55 100 N14       30.00R
LAKEVILLE      CLOUDY    55  54  94 N12G22    29.97R
EDEN PRAIRIE   CLOUDY    55  52  89 N16G25    29.98R
SOUTH ST PAUL  CLOUDY    57  55  94 N13G20    29.97R
LAKE ELMO      CLOUDY    55  54  94 N14G20    29.99R
$$
MNZ001>005-007-008-013>017-022>024-027-028-300300-
   Northwest Minnesota

CITY           SKY/WX    TMP DP  RH WIND       PRES   REMARKS
BEMIDJI        MOCLDY    50  38  62 N10       30.14R
HALLOCK        PTCLDY    46  30  53 N15G24    30.27R
ROSEAU         CLEAR     46  34  61 N15       30.22R
WARROAD        CLEAR     46  36  66 NW14      30.22R
THIEF RVR FALL PTCLDY    48  32  53 N15       30.22R
CROOKSTON      PTCLDY    48  34  57 N15G21    30.23R
FOSSTON        PTCLDY    46  36  66 N13       30.18R
DETROIT LAKES  MOCLDY    50  41  71 N18G25    30.16R
MOORHEAD       MOCLDY    50  39  66 N16G24    30.20R
PARK RAPIDS    CLOUDY    54  39  57 N12       30.11R
MAHNOMEN       FAIR      48  37  66 N16       30.17R
$$
MNZ006-009>011-018-025>026-300300-
   North Central Minnesota

CITY           SKY/WX    TMP DP  RH WIND       PRES   REMARKS
BAUDETTE       PTCLDY    48  33  56 N14       30.17R
FLAG ISLAND    PTCLDY    48  36  61 NW23G29   30.19R
INTL FALLS     CLOUDY    49  36  61 N12G24    30.13R
WASKISH        PTCLDY    48  37  66 N9        30.16R
BIG FORK       MOCLDY    48  37  66 N6        30.12S
LONGVILLE      CLOUDY    52  41  66 N7        30.10R
GRAND RAPIDS   CLOUDY    52  37  58 N13G22    30.09R
CRANE LAKE     CLOUDY    48  39  71 N7        30.11R
ORR            CLOUDY    48  39  71 N2        30.08R
COOK           CLOUDY    48  41  76 NW6       30.10R
WALKER         MOCLDY    51  39  64 N6        30.12R
$$
MNZ012-019>021-037-300300-
   Northeast Minnesota

CITY           SKY/WX    TMP DP  RH WIND       PRES   REMARKS
DULUTH         CLOUDY    52  43  71 N12G20    30.03R
HIBBING        CLOUDY    49  40  71 N13G22    30.08R
EVELETH        CLOUDY    50  41  71 N8        30.08R
DULUTH HARBOR  CLOUDY    54  48  82 N12       30.04R
TWO HARBORS    CLOUDY    55  46  71 N6        30.02R
SILVER BAY     CLOUDY    54  45  71 N7        30.01R
GRAND MARAIS     N/A     56  47  71 VRB3      29.99R
G MARAIS ARPRT CLOUDY    48  43  81 NW10G16   30.00R
$$
MNZ029>031-032-039>041-046>048-054>057-064-300300-
   West Central Minnesota

CITY           SKY/WX    TMP DP  RH WIND       PRES   REMARKS
FERGUS FALLS   MOCLDY    52  41  66 N10G18    30.15R
WHEATON        CLOUDY    48  41  76 NW13      30.17R
MORRIS         CLOUDY    52  45  76 N14       30.11R
ALEXANDRIA     CLOUDY    52  43  71 N10       30.11R
ELBOW LAKE     FAIR      51  42  70 N17G25    30.13R
WADENA         CLOUDY    52  43  71 N7        30.10R
GLENWOOD       CLOUDY    52  45  76 N9        30.10R
APPLETON       CLOUDY    54  45  71 N13G21    30.12R
BENSON         CLOUDY    52  45  76 N9        30.11R
ORTONVILLE     CLOUDY    52  43  71 N16       30.13R
MADISON          N/A     52  43  71 N14       30.13R
WILLMAR        FAIR      54  46  76 N13       30.09R
$$
MNZ033>034-036-042>043-049>051-058-059-300300-
   Central Minnesota

CITY           SKY/WX    TMP DP  RH WIND       PRES   REMARKS
ST CLOUD       CLOUDY    53  46  77 N12       30.05R
SAUK CENTRE    FAIR      52  43  71 N9        30.09R
PAYNESVILLE    CLOUDY    48  45  87 NW8       30.08R
AITKIN         CLOUDY    54  43  66 NW6       30.06R
PINE RIVER     CLOUDY    52  43  71 N12       30.12R
BRAINERD       CLOUDY    52  42  69 N13G18    30.08R
STAPLES        CLOUDY    52  39  62 N12       30.10R
LONG PRAIRIE   FAIR      50  43  76 NW6       30.09R
LITTLE FALLS   CLOUDY    52  43  71 NW5       30.08R
LITCHFIELD     CLOUDY    54  50  87 N15       30.06R
BUFFALO        RAIN      53  49  87 N7        30.04R
MAPLE LAKE     CLOUDY    53  51  92 NW10      30.05R
$$
MNZ037-044-045-052-053-300300-
   East Central Minnesota

CITY           SKY/WX    TMP DP  RH WIND       PRES   REMARKS
PRINCETON      CLOUDY    54  50  87 N9        30.04R
MORA           CLOUDY    52  46  82 N6        30.05R
CAMBRIDGE      DRIZZLE   55  46  71 N8        30.01R
RUSH CITY      CLOUDY    54  51  90 N9        30.02R
MOOSE LAKE     CLOUDY    54  45  71 N7        30.02R
HINCKLEY       CLOUDY    54  50  87 N6        30.03R
CLOQUET        CLOUDY    52  43  71 N10G18    30.04R
MCGREGOR       CLOUDY    52  45  76 NW7       30.06R
$$
MNZ071>073-080-081-089-090-097-098-300300-
   Southwest Minnesota

CITY           SKY/WX    TMP DP  RH WIND       PRES   REMARKS
MONTEVIDEO     CLOUDY    52  46  82 N13       30.11R
GRANITE FALLS  CLOUDY    52  47  81 NW12G17   30.11R
CANBY          MOCLDY    49  43  81 NW12G17   30.15R
MARSHALL       CLOUDY    48  41  76 N17G26    30.10R
REDWOOD FALLS  CLOUDY    54  50  86 N8        30.06R
OLIVIA         CLOUDY    52  46  82 N14       30.06R
PIPESTONE      MOCLDY    46  43  87 N15G22    30.10R
WINDOM         CLOUDY    52  48  87 NW23G29   30.04R
WORTHINGTON    CLOUDY    50  45  81 N18G31    30.06R
JACKSON        CLOUDY    52  50  93 NW23G30   30.03R FOG
TRACY          CLOUDY    50  47  92 NW18G24   30.09R
SLAYTON        CLOUDY    47  46  99 NW20G28   30.09R
$$
MNZ065>067-074>077-082>085-091>093-300300-
   South Central Minnesota

CITY           SKY/WX    TMP DP  RH WIND       PRES   REMARKS
MANKATO        CLOUDY    57  54  88 N18G28    29.99R
NEW ULM        CLOUDY    55  52  88 N12G22    30.03R
ST JAMES       CLOUDY    55  54  94 NW24G30   30.03R
FAIRMONT       CLOUDY    55  50  82 NW23G29   29.99R
GLENCOE        CLOUDY    54  52  94 N17G24    30.02R
FARIBAULT      RAIN      61  59  94 NW14G20   29.96R
OWATONNA       DRIZZLE   63  61  94 N17       29.94R
WASECA         DRIZZLE   59  57  94 N22       29.96R
ALBERT LEA     LGT RAIN  64  63  94 N8        29.92R
$$
MNZ078>079-086>088-094>096-300300-
   Southeast Minnesota

CITY           SKY/WX    TMP DP  RH WIND       PRES   REMARKS
ROCHESTER      LGT RAIN  64  63  96 CALM      29.92S
RED WING       LGT RAIN  64  61  88 NE6       29.91S
STANTON        DRIZZLE   61  58  90 N12G26    29.94R
DODGE CENTER   CLOUDY    64  63  94 N7        29.92S
WINONA         RAIN      66  64  94 CALM      29.90R
AUSTIN         LGT RAIN  63  61  94 N6        29.90S
PRESTON        CLOUDY    63  61  95 CALM      29.91F
$$
ABBREVIATIONS USED IN REMARKS
   TC - TEMPERATURES IN CELSIUS
  WCI - WIND CHILL INDEX
   HX - HEAT INDEX
  VSB - VISIBILITY
$$



USA.gov is the U.S. government's official web portal to all federal, state and local government web resources and services.